Погода в Виесите

Латвия     56˚20′41″N   25˚33′11″E
темп.,
°C
ветер,
м/с
пор.,
м/с
влажн.,
%
обл.,
%
осадки,
мм/ч
давл.,
гПа
погр.,
м
6 декабря, вс
вс623:00+4˚ююв51386100 0.0 1022751
02:00+4˚ююв5138899 0.0 1024715
05:00+4˚ююв51285100 0.0 1023782
08:00+3˚ююв51383100 0.0 1025819
11:00+2˚ююв6128297 0.0 1026763
14:00+3˚ююв5137674 0.0 1026750
17:00+1˚ююв515740 0.0 1026654
20:00ююв515610 0.0 1027648
7 декабря, пн
пн723:00−1˚ююв515580 0.0 1028599
02:00−1˚юв515560 0.0 1028571
05:00−1˚юв614590 0.0 1027618
08:00−1˚юв614610 0.0 1028642
11:00−1˚юв614550 0.0 1028700
14:00−1˚юв614550 0.0 1027710
17:00−2˚юв615550 0.0 1027672
20:00−2˚юв614520 0.0 1028652
8 декабря, вт
вт823:00−3˚юв514540 0.0 1028609
02:00−3˚юв513610 0.0 1028648
05:00−4˚юв513670 0.0 1028580
08:00−4˚юв512650 0.0 1028545
11:00−3˚юв512590 0.0 1028533
14:00−2˚юв512530 0.0 1029604
17:00−3˚юв512590 0.0 1029531
20:00−4˚вюв512600 0.0 1029486
9 декабря, ср
ср923:00−4˚вюв411620 0.0 1029514
02:00−5˚юв411650 0.0 1030597
05:00−5˚юв410690 0.0 1030631
08:00−5˚юв411690 0.0 1030558
11:00−4˚юв49640 0.0 1030527
14:00−3˚вюв38630 0.0 1029473
17:00−4˚вюв49660 0.0 1028421
20:00−5˚вюв410665 0.0 1028421
10 декабря, чт
чт1023:00−5˚вюв49700 0.0 1028434
02:00−5˚вюв39730 0.0 1027514
05:00−5˚вюв38780 0.0 1026424
08:00−5˚вюв498732 0.1 1026451
11:00−4˚вюв488589 0.0 1026430
14:00−3˚юв388989 0.1 1025409
17:00−2˚вюв499098 0.2 1024410
20:00−2˚вюв498999 0.3 1023430